Location: ????????
(55.6719°N, 38.0078°E)
Time: 14:21:40
(UTC+00:00)

Daily predictions for brighter satellites

Satellite Brightness Start Highest point End
(mag) Time Altitude Azimuth Time Altitude Azimuth Time Altitude Azimuth
H-2A R/B 3.6 14:12:37 10° N 14:16:40 36° WNW 14:20:45 10° SW
SeaSat 1 4.5 14:13:51 10° NNE 14:16:46 16° NNW 14:19:41 10° NW
Cosmos 2228 3.4 14:14:51 10° NNW 14:19:13 72° W 14:23:30 10° S
CZ-4 R/B 2.6 14:17:43 10° ESE 14:20:53 22° ENE 14:24:07 10° N
Cosmos 990 Rocket 4.0 14:16:01 10° SSW 14:21:16 78° ESE 14:26:32 10° NNE
SJ 16-02 1.4 14:19:14 10° SSW 14:23:39 87° ESE 14:28:08 10° NNE
USA 267 3.6 14:20:07 10° ENE 14:26:33 57° SSE 14:32:59 10° SW
Cosmos 2082 Rocket 3.5 14:25:07 10° W 14:30:09 32° NW 14:35:11 10° NNE
Cosmos 1707 3.8 14:28:20 10° SSW 14:32:07 47° WNW 14:35:56 10° N
CZ-4B R/B 1.9 14:29:21 10° N 14:32:23 54° WNW 14:35:24 10° SSW
Cosmos 1437 Rocket 4.3 14:29:05 10° SW 14:32:37 33° WNW 14:36:09 10° N
Cosmos 1241 Rocket 4.4 14:27:43 10° NW 14:33:58 75° NE 14:40:13 10° SE
Cosmos 2184 Rocket 4.2 14:28:52 10° SSE 14:34:45 49° E 14:40:39 10° NNE
CZ-4B R/B 4.3 14:30:01 10° S 14:35:33 52° W 14:41:07 10° NNW
Cosmos 2237 Rocket 2.3 14:31:26 10° NNW 14:36:58 53° NE 14:42:28 10° SE
Cosmos 2333 Rocket 2.4 14:31:33 10° NW 14:37:19 79° WSW 14:43:00 10° SSE
Cosmos 494 Rocket 4.0 14:35:44 10° NNW 14:40:49 57° NE 14:45:52 10° SE
Cosmos 2298 Rocket 4.5 14:36:25 10° S 14:41:24 43° ESE 14:46:27 10° NE
SMAP 3.1 14:36:56 10° SSE 14:41:36 87° WSW 14:46:18 10° NNW
Cosmos 2154 Rocket 4.5 14:37:10 10° SSE 14:42:52 38° E 14:48:34 10° NNE
Cosmos 1892 Rocket 3.6 14:38:26 10° S 14:42:54 79° E 14:47:24 10° NNE
NOSS 2-1 (C) 4.1 14:38:44 10° NW 14:43:16 63° NNE 14:49:31 10° ESE
In-Cosmos 22 4.2 14:39:23 10° SSW 14:44:44 81° WNW 14:50:03 10° NNE
Cosmos 1812 Rocket 3.8 14:41:15 10° N 14:45:34 46° ENE 14:49:54 10° SE
NOSS 2-1 (D) 4.1 14:42:31 10° NW 14:47:06 65° NNE 14:53:25 10° ESE
Ariane Rocket 4.2 14:43:59 10° E 14:47:42 21° NE 14:51:27 10° N
Cosmos 1674 2.5 14:45:06 10° S 14:48:50 81° E 14:52:35 10° NNE
Cosmos 1726 4.2 14:47:28 10° NNW 14:50:44 31° W 14:53:58 10° SSW
Meteor 1-24 Rocket 3.7 14:46:16 10° S 14:51:26 54° E 14:56:43 10° NNE
Cosmos 2084 4.5 14:47:45 10° W 14:51:56 37° NNW 14:55:27 13° NE
CZ-2D R/B 4.4 14:49:06 10° ESE 14:52:11 23° ENE 14:55:17 10° N
Cosmos 1689 Rocket 2.9 14:50:07 10° N 14:53:00 51° WNW 14:55:52 10° SSW
Cosmos 1300 2.6 14:49:32 10° N 14:53:20 63° ENE 14:57:08 10° SSE
Cosmos 1818 4.3 14:48:25 10° WSW 14:53:42 47° NNW 14:58:39 12° NE
Cosmos 1908 4.3 14:50:33 10° NNW 14:54:19 48° W 14:58:02 10° S
H-2A R/B 3.5 14:53:56 14° ENE 14:55:33 16° NE 14:58:32 10° N
SL-16 R/B 2.7 14:52:07 10° NNW 14:57:26 38° NE 15:02:42 10° ESE
Cosmos 2251 Rocket 4.4 14:54:01 10° NNW 14:58:38 29° NE 15:03:03 11° ESE
CSL-04 Rocket 4.0 14:54:16 10° SE 14:59:29 44° ENE 15:04:44 10° N
YAOGAN 1 3.0 14:55:45 10° SE 14:59:45 38° ENE 15:03:46 10° N
Cosmos 1340 Rocket 2.7 14:57:35 10° N 15:01:30 61° ENE 15:05:26 10° SSE
Meteor 2-5 Rocket 3.7 14:56:11 10° S 15:01:43 82° ESE 15:07:22 10° NNE
Cosmos-2242 3.7 14:58:34 10° N 15:02:28 31° ENE 15:06:19 10° SE
Okean 1-7 Rocket 3.8 14:58:36 10° SSW 15:03:00 76° WNW 15:07:28 10° N
ATLAS 5 CENTAUR R/B 1.7 14:59:17 10° SW 15:03:39 79° SE 15:07:39 16° NE
PSLV R/B 3.8 15:00:24 10° NNE 15:04:30 84° ESE 15:08:35 10° SSW
Cosmos 2058 Rocket 4.3 15:00:20 10° NNW 15:04:31 45° W 15:08:41 10° SSW
Cosmos 2074 Rocket 4.0 14:58:18 10° S 15:04:35 77° E 15:10:54 10° NNE
Cosmos 1898 Rocket 4.1 14:59:56 10° SW 15:05:10 57° NW 15:10:25 10° NNE
CZ-4C R/B 3.3 14:59:30 10° NW 15:06:20 67° SW 15:14:17 10° SSE
Cosmos 2219 4.3 15:03:31 10° SSE 15:07:54 24° ESE 15:10:29 17° ENE
KORONAS-FOTON 4.0 15:05:09 10° SSW 15:08:56 71° WNW 15:12:44 10° N
Cosmos 1455 3.2 15:06:02 10° N 15:09:19 26° ENE 15:12:33 10° ESE
Cosmos 1833 4.3 15:03:51 10° SW 15:09:35 87° WNW 15:15:20 10° NE
FengYun 1-2 T 4.2 15:04:58 10° SSE 15:10:36 77° ENE 15:16:18 10° NNW
Cosmos 1271 Rocket 2.5 15:09:06 10° S 15:12:49 71° E 15:16:36 10° NNE
Cosmos 1937 Rocket 4.0 15:07:51 10° SW 15:13:04 63° WNW 15:18:23 10° NNE
NOAA 12 4.4 15:07:51 10° S 15:13:05 73° WSW 15:18:22 10° NNW
SL-14 R/B 3.3 15:09:29 10° S 15:13:25 58° E 15:17:19 10° NNE
Cosmos 1242 Rocket 2.5 15:10:10 10° S 15:13:37 57° E 15:16:56 11° NNE
Cosmos 2150 Rocket 3.9 15:09:34 10° SSW 15:14:41 67° ESE 15:19:36 11° NNE
Cosmos 1626 2.2 15:12:38 10° S 15:16:16 56° E 15:19:55 10° NNE
Starlink AR 4.3 15:14:57 10° SSW 15:16:50 19° SSE 15:17:24 17° SE
Cosmos 1602 Rocket 3.6 15:13:50 10° S 15:18:07 55° E 15:22:23 10° NNE
YAOGAN 6 2.6 15:15:10 10° SSE 15:18:51 89° WSW 15:22:33 10° NNW
Cosmos 1980 3.7 15:13:22 10° NW 15:19:07 89° SW 15:24:50 10° SSE
Nadezhda 3 Rocket 4.0 15:13:20 10° NNW 15:19:38 89° W 15:25:58 10° S
COSMO-SKYMED 1 2.9 15:18:09 10° NNE 15:22:20 43° E 15:26:28 10° S
COSMOS 2487 4.1 15:19:42 10° WSW 15:22:51 31° NW 15:26:02 10° NNE
Cosmos 2297 Rocket 3.3 15:19:12 10° SSE 15:23:29 23° ESE 15:24:42 21° E
ATLAS CENTAUR R/B 4.0 15:18:35 10° SW 15:24:23 73° SE 15:36:36 18° ENE
Meteor 2-1 Rocket 4.1 15:18:53 10° NNW 15:24:26 82° ENE 15:29:57 10° SSE
Cosmos 1939 Rocket 3.0 15:24:37 10° SE 15:28:22 47° ENE 15:32:13 10° N
NOSS 0 Rocket 4.4 15:22:38 10° NW 15:28:49 64° WSW 15:34:56 10° SSE
Cosmos 1727 Rocket 4.4 15:24:11 10° N 15:29:58 38° ENE 15:35:39 10° SE
Cosmos 2219 Rocket 3.7 15:25:11 10° NW 15:30:27 40° WSW 15:35:41 10° S
Cosmos 1125 Rocket 3.6 15:26:06 10° S 15:31:10 56° ESE 15:35:00 18° NE
COSMOS 2428 4.2 15:27:11 10° NW 15:32:30 40° WSW 15:37:48 10° S
NOSS 2-1 (E) 4.2 15:28:53 10° NW 15:33:46 86° SW 15:40:37 10° SE
Starlink AQ 4.1 15:31:56 10° SW 15:34:28 26° SSE 15:34:52 25° SE
Cosmos 1758 Rocket 3.9 15:31:02 10° SSE 15:35:01 38° E 15:37:06 23° NE
Okean-O 3.4 15:31:02 10° S 15:35:23 55° WSW 15:39:46 10° NNW
Cosmos 2227 Rocket 3.2 15:31:00 10° SSE 15:35:30 25° ESE 15:36:14 24° E
Timation 2 Rocket 3.9 15:30:39 10° SSW 15:36:43 68° ESE 15:41:41 17° NE
Starlink AS 4.0 15:34:12 10° SW 15:36:44 27° SSE 15:37:03 26° SE
Starlink BA 4.0 15:34:25 10° SW 15:36:57 27° SSE 15:37:16 26° SE
Starlink AU 4.0 15:34:38 10° SW 15:37:11 27° SSE 15:37:29 26° SE
Starlink AT 4.0 15:34:51 10° SW 15:37:24 27° SSE 15:37:42 26° SE
Starlink BB 4.0 15:35:05 10° SW 15:37:38 27° SSE 15:37:55 26° SE
NOAA 11 4.1 15:32:20 10° SSE 15:37:48 72° ENE 15:43:18 10° NNW
Starlink BC 4.0 15:35:18 10° SW 15:37:51 27° SSE 15:38:08 26° SSE
Starlink BK 4.0 15:35:31 10° SW 15:38:04 27° SSE 15:38:21 27° SSE
Starlink AY 4.0 15:35:45 10° SW 15:38:18 27° SSE 15:38:34 27° SSE
Starlink AW 4.0 15:35:58 10° SW 15:38:31 27° SSE 15:38:47 27° SSE
Starlink BJ 4.0 15:36:11 10° SW 15:38:44 27° SSE 15:38:59 27° SSE
Starlink AV 4.0 15:36:24 10° SW 15:38:57 27° SSE 15:39:12 27° SSE
Starlink BD 4.0 15:36:37 10° SW 15:39:11 27° SSE 15:39:25 27° SSE
Starlink BE 4.0 15:36:49 10° SW 15:39:23 27° SSE 15:39:37 27° SSE
Starlink BM 4.0 15:37:03 10° SW 15:39:37 27° SSE 15:39:50 27° SSE
Starlink AX 4.0 15:37:17 10° SW 15:39:50 28° SSE 15:40:03 27° SSE
Starlink BH 4.0 15:37:30 10° SW 15:40:04 28° SSE 15:40:17 27° SSE
Starlink AZ 4.0 15:37:43 10° SW 15:40:17 28° SSE 15:40:29 27° SSE
Starlink BG 4.0 15:37:56 10° SW 15:40:31 28° SSE 15:40:42 27° SSE
Starlink BF 4.0 15:38:09 10° SW 15:40:44 28° SSE 15:40:55 28° SSE
Starlink BL 4.0 15:38:21 10° SW 15:40:56 28° SSE 15:41:07 28° SSE
Cosmos 1626 Rocket 3.6 15:36:37 10° SSW 15:40:58 79° WNW 15:45:19 10° N
Starlink AH 4.0 15:38:36 10° SW 15:41:10 28° SSE 15:41:20 28° SSE
ATLAS CENTAUR R/B 1.7 15:37:15 10° NW 15:41:24 44° NNE 15:42:25 36° ENE
Starlink AC 4.0 15:38:49 10° SW 15:41:24 28° SSE 15:41:34 28° SSE
Starlink X 4.0 15:39:02 10° SW 15:41:37 28° SSE 15:41:47 28° SSE
Starlink AE 4.0 15:39:14 10° SW 15:41:49 28° SSE 15:41:58 28° SSE
Starlink Z 4.0 15:39:30 10° SW 15:42:05 28° SSE 15:42:13 28° SSE
Starlink AK 4.0 15:39:42 10° SW 15:42:17 28° SSE 15:42:26 28° SSE
Starlink AL 4.0 15:39:56 10° SW 15:42:31 28° SSE 15:42:38 28° SSE
Starlink AD 4.0 15:40:09 10° SW 15:42:44 28° SSE 15:42:51 28° SSE
Envisat 4.1 15:38:00 10° S 15:42:55 48° W 15:47:51 10° NNW
Starlink Y 4.0 15:40:36 10° SW 15:43:11 28° SSE 15:43:17 28° SSE
Starlink AG 4.0 15:40:50 10° SW 15:43:25 28° SSE 15:43:31 28° SSE
Starlink W 4.0 15:41:02 10° SW 15:43:38 29° SSE 15:43:44 29° SSE
Starlink AJ 4.0 15:41:16 10° SW 15:43:52 29° SSE 15:43:56 29° SSE
Cosmos 1269 Rocket 4.3 15:38:41 10° NNW 15:43:58 69° WSW 15:49:12 10° SSE
Starlink AM 4.0 15:41:44 10° SW 15:44:19 29° SSE 15:44:24 29° SSE
Starlink AP 4.0 15:41:56 10° SW 15:44:32 29° SSE 15:44:35 29° SSE
Starlink AA 4.0 15:42:10 10° SW 15:44:46 29° SSE 15:44:49 29° SSE
Starlink AF 4.0 15:42:23 10° SW 15:44:58 29° SSE 15:45:01 29° SSE
Starlink AB 4.0 15:42:36 10° SW 15:45:12 29° SSE 15:45:15 29° SSE
Starlink AN 4.0 15:42:50 10° SW 15:45:27 29° SSE 15:45:28 29° SSE
Cosmos 2341 Rocket 4.0 15:39:57 10° S 15:46:11 61° E 15:52:26 10° NNE
SKYMED 3 4.5 15:42:11 12° NNE 15:46:15 69° ESE 15:50:35 10° S
Cosmos 1943 4.1 15:41:41 10° NNW 15:46:33 29° NNE 15:47:44 26° NE
ADEOS Rocket 3.8 15:41:47 11° NNE 15:47:17 33° E 15:53:29 10° SSE
SL-8 Rocket 4.2 15:42:47 10° SSE 15:48:48 49° E 15:54:49 10° NNE
Cosmos 1607 3.8 15:47:42 10° SW 15:53:49 77° SE 15:57:18 28° NE
ATLAS 5 CENTAUR R/B 2.7 15:50:48 10° WNW 15:54:09 64° NNE 15:58:47 25° E
Starlink T 4.0 15:51:52 10° SW 15:54:16 31° S 15:54:16 31° S
CZ-4 R/B 1.9 15:51:34 10° S 15:55:35 61° W 15:59:43 10° NNW
ARGOS 3.7 15:55:09 33° ENE 15:55:39 34° ENE 16:00:29 10° N
Starlink N 4.0 15:53:05 10° SW 15:55:27 31° S 15:55:27 31° S
Cosmos 372 Rocket 4.4 15:51:29 10° SW 15:56:35 63° WNW 16:00:52 15° NNE
Starlink Q 4.0 15:54:37 10° SW 15:56:56 31° S 15:56:56 31° S
Starlink P 4.0 15:55:55 10° SW 15:58:13 31° S 15:58:13 31° S
Starlink U 4.0 15:57:14 10° SW 15:59:30 31° S 15:59:30 31° S
Cosmos 1825 Rocket 3.5 15:56:30 10° S 16:00:47 59° E 16:02:15 37° NE
Starlink B 4.1 15:58:35 10° SW 16:00:49 31° S 16:00:49 31° S
SJ 16-02 3.6 15:59:30 10° W 16:02:52 21° NW 16:06:16 10° N
Meteor 2-17 Rocket 4.4 15:59:34 10° S 16:05:44 90° S 16:11:55 10° NNE
Meteor 2-10 Rocket 3.5 16:01:13 10° NNW 16:06:44 86° ENE 16:11:58 10° SSE
Starlink D 4.2 16:04:00 10° SW 16:06:07 31° SSW 16:06:07 31° SSW
Cosmos 1356 Rocket 4.4 16:03:49 10° N 16:06:09 30° NNE 16:06:09 30° NNE
Starlink S 4.2 16:05:24 10° SW 16:07:29 31° SSW 16:07:29 31° SSW
Starlink C 4.2 16:06:46 10° SW 16:08:48 30° SSW 16:08:48 30° SSW
USA 267 3.2 16:06:42 34° ENE 16:09:54 87° NNW 16:16:28 10° W
SKYMED 2 3.7 16:06:39 13° NNE 16:10:29 75° WNW 16:14:49 10° SSW
Starlink E 4.3 16:08:11 10° SW 16:10:11 30° SSW 16:10:11 30° SSW
Starlink J 4.3 16:09:37 10° SW 16:11:34 30° SSW 16:11:34 30° SSW
Starlink V 4.4 16:11:00 10° SW 16:12:56 29° SSW 16:12:56 29° SSW
Starlink H 4.4 16:12:27 10° SW 16:14:19 29° SSW 16:14:19 29° SSW
Cosmos 2082 Rocket 4.1 16:12:18 10° NW 16:16:02 18° N 16:18:21 14° NNE
Starlink F 4.5 16:13:53 10° SW 16:15:43 28° SSW 16:15:43 28° SSW
Cosmos 724 4.4 16:12:11 10° SSW 16:17:55 51° SE 16:18:55 46° E
Cosmos 2218 Rocket 3.9 16:13:16 10° S 16:19:32 65° E 16:25:53 10° NNE
Meteor 1-27 4.2 16:14:38 10° N 16:20:10 57° ENE 16:21:28 46° ESE
Cosmos 1339 Rocket 4.4 16:14:15 10° NNW 16:20:22 82° W 16:26:28 10° S
Cosmos 2237 Rocket 3.5 16:15:44 10° NW 16:20:58 41° WSW 16:26:10 10° S
IRS-1A Rocket 4.2 16:19:19 10° SSE 16:25:06 83° ENE 16:30:48 10° NNW
Ariane Rocket 2.9 16:20:59 10° SSE 16:26:04 88° ENE 16:31:12 10° NNW
CZ-2D R/B 4.2 16:22:37 10° S 16:26:20 48° W 16:30:06 10° NNW
Cosmos 864 Rocket 4.3 16:22:09 10° S 16:28:13 67° E 16:34:19 10° NNE
H-2A R/B 2.0 16:34:33 60° NE 16:34:33 60° NE 16:39:08 10° N
Meteor 1-21 Rocket 4.3 16:30:17 10° SSW 16:35:53 77° WNW 16:41:40 10° NNE
YAOGAN 1 4.2 16:31:56 10° SSW 16:35:54 34° W 16:39:54 10° NNW
MOS 1 4.2 16:36:54 28° SSE 16:40:02 85° ENE 16:45:47 10° NNW
Cosmos-2242 4.3 16:36:04 10° NNW 16:40:08 40° W 16:44:10 10° SSW
Cosmos 2251 Rocket 3.6 16:36:09 10° NNW 16:41:27 74° WSW 16:43:36 36° S
SL-16 R/B 2.5 16:36:17 10° NW 16:41:55 64° WSW 16:45:16 25° SSE
Cosmos 1455 3.5 16:41:27 10° NNW 16:45:05 39° W 16:48:38 10° SSW
Cosmos 1959 Rocket 4.3 16:40:24 10° S 16:46:35 89° WNW 16:52:45 10° NNE
DMSP B5D1-3 4.4 16:45:55 48° NNE 16:47:24 84° WNW 16:52:30 10° SSW
ATLAS 5 CENTAUR R/B 2.6 16:44:19 10° W 16:48:43 41° NNW 16:49:12 40° N
CZ-2C R/B 3.3 16:52:06 60° NNE 16:52:06 60° NNE 16:56:56 10° NNW
Cosmos 2219 3.1 16:45:49 10° SW 16:51:28 82° NW 16:52:27 62° NNE
Cosmos 1000 Rocket 4.3 16:45:46 10° N 16:51:57 70° ENE 16:52:12 70° E
Cosmos 1603 3.8 16:48:22 10° NNW 16:53:30 61° NNE 16:53:30 61° NNE
Cosmos 2366 rocket 4.0 16:50:23 10° SSW 16:56:37 81° W 17:02:58 10° N
COSMO-SKYMED 1 4.3 16:55:17 14° N 16:58:24 31° WNW 17:02:14 10° WSW
SPOT 3 Rocket 4.2 17:02:10 45° N 17:02:10 45° N 17:05:45 10° NNW
Cosmos 1932 4.5 16:59:46 10° SSW 17:05:36 67° SSE 17:05:36 67° SSE
Cosmos 2297 Rocket 2.2 17:01:13 10° SW 17:06:34 80° SW 17:06:34 80° SW
Cosmos 1953 Rocket 4.5 17:03:09 10° SSW 17:06:49 47° WSW 17:06:49 47° WSW
Cosmos 2227 Rocket 2.5 17:13:22 10° SW 17:18:07 63° WSW 17:18:07 63° WSW
Resurs 01 Rocket 4.4 17:23:53 11° N 17:23:53 11° N 17:23:58 10° N
ATLAS CENTAUR R/B 3.3 17:16:24 10° NW 17:18:38 27° WNW 17:18:38 27° WNW
Cosmos 1943 4.0 17:25:42 10° NW 17:29:34 45° NNW 17:29:34 45° NNW
NOSS 3-3 (A) 4.3 17:24:23 10° NW 17:31:26 81° NNE 17:31:26 81° NNE
NOSS 3-3 (C) 4.3 17:24:28 10° NW 17:31:31 80° NNE 17:31:31 80° NNE
ADEOS Rocket 3.4 17:28:31 19° N 17:33:13 67° WNW 17:40:07 10° SSW
ARGOS 3.9 17:36:39 49° WNW 17:36:39 49° WNW 17:41:04 10° NNW
USA 267 3.5 17:54:03 64° WNW 17:54:03 64° WNW 17:59:30 10° WNW
Cosmos 2082 Rocket 4.4 17:58:12 10° NNW 18:00:12 17° N 18:00:12 17° N
H-2A R/B 4.1 18:15:09 23° WNW 18:15:09 23° WNW 18:18:11 10° NW
